www.pogodaiklimat.ru

Погода и климат >> Архив погоды >> Россия >> Якутия >> Оленек


АРХИВ ПОГОДЫ в Оленеке

Время (UTC), дата Ветер
(напр.,м/с)
 
Видим.   Явления Облачность Т
(С)
Тd
(С)
f
(%)
Тe
(С)
Тes
(С)
Комфортность P
(гПа)
Po
(гПа)
Тmin
(С)
Tmax
(С)
R
(мм)
R24
(мм)
S
(см)
15 10.09 В 3 н/о н/о +5.9 +5.8 99 +2 +2 1003.5 977.0
18 10.09 В 3 н/о н/о +5.9 +5.8 99 +2 +2 1001.5 975.1
21 10.09 В 2 н/о н/о +4.9 +4.8 99 +2 +2 1000.2 973.7
00 11.09 В 2 4000 м дымка 10/4 1000 м
[Sc As op]
+5.3 +5.3 100 +2 +3 999.1 972.7 +4.6 2
03 11.09 ЮВ 3 50 км 10/3 1000 м
[Sc Ac As Ci fib]
+9.0 +8.8 99 +6 +7 997.7 971.7
06 11.09 Ю 4 50 км 10/0
[Ac As Ci sp]
+13.8 +6.8 63 +12 +14 996.5 970.9
09 11.09 ЮЗ 4 20 км слаб. ливневой дождь 10/8 700 м
[Cb cap Ac und]
+13.0 +6.1 63 +11 +11 996.8 971.1
12 11.09 В 1
{12}
н/о н/о +9.0 +8.9 99 +8 +8 998.6 972.6
15 11.09 СЗ 1 н/о н/о +8.3 +7.5 95 +7 +7 999.1 973.0
18 11.09 ЮЗ 1 н/о н/о +5.2 +5.1 99 +4 +4 1000.2 973.7
21 11.09 СЗ 1 н/о н/о +2.6 +2.5 99 +1 +1 1000.9 974.2
00 12.09 З 1 200 м туман 6/0
[Ci fib]
-0.5 -0.5 100 -3 -2 1002.1 975.0 -1.2
03 12.09 ЮЗ 1 500 м туман 8/0
[Ci fib]
+2.9 +2.7 99 +1 +4 1001.8 975.1
06 12.09 З 1 50 км {туман} 10/4 1000 м
[Cb cap Ac und]
+10.1 +2.3 58 +10 +11 1000.9 974.8
09 12.09 СВ 3 50 км {ливн. осадки} 10/4 1000 м
[Cb cap Ac As Ci sp]
+10.3 +2.1 57 +9 +9 1000.2 974.2
12 12.09 СВ 5 н/о н/о +9.0 +1.6 60 +6 +6 999.9 973.8 +11.2
15 12.09 СВ 6-10
{11}
н/о н/о +7.8 +3.5 74 +4 +4 998.8 972.6
18 12.09 СВ 7-11
{12}
н/о н/о +6.8 +3.4 79 +2 +2 997.5 971.3
21 12.09 СВ 7-11
{15}
н/о н/о +6.3 +4.5 88 +1 +1 996.1 969.8
00 13.09 СВ 6
{16}
50 км в посл. час ливневой дождь 10/10 240 м
[St]
+5.7 +5.5 99 +1 +1 995.5 969.2 +5.7 5
03 13.09 СВ 7-11
{15}
20 км слаб. ливневой дождь 10/10 240 м
[Cb cap]
+4.4 +4.2 99 -2 -2 995.2 968.8 +4.4
06 13.09 СВ 7-12
{15}
50 км в посл. час ливневой дождь 10/10 240 м
[Cb cap]
+4.1 +3.9 99 -2 -2 994.6 968.2
09 13.09 СВ 3
{12}
10 км слаб. морось {дождь} 10/10 150 м
[St]
+3.9 +3.9 100 -0 -0 995.9 969.5
12 13.09 СВ 3 н/о н/о +4.6 +4.1 97 +1 +1 995.7 969.3 +5.7 3
15 13.09 С 5
{12}
н/о н/о +3.9 +3.0 94 -1 -1 995.4 968.9
18 13.09 СВ 5
{11}
н/о н/о +2.6 +0.9 89 -3 -3 995.5 968.9
21 13.09 С 4
{10}
н/о н/о +1.5 +1.4 99 -4 -4 995.3 968.6
00 14.09 С 6-12
{12}
н/о н/о +2.4 +1.3 92 -4 -4 994.7 968.1 +1.4
03 14.09 С 7-12
{12}
н/о н/о +3.1 +2.0 92 -3 -3 994.2 967.7
06 14.09 С 6-10
{13}
н/о н/о +3.2 +2.7 97 -3 -3 994.6 968.1
09 14.09 СВ 7-10
{11}
н/о н/о +3.7 +3.7 100 -3 -3 996.0 969.5
12 14.09 В 3
{10}
н/о н/о +1.8 +1.7 99 -3 -3 998.3 971.6 +4.1
15 14.09 В 2 н/о н/о +0.6 +0.5 99 -3 -3 999.9 973.0
18 14.09 В 3 н/о н/о +0.1 +0.1 100 -5 -5 1001.2 974.2
21 14.09 В 2 н/о н/о -0.6 -0.7 99 -5 -5 1002.4 975.3
00 15.09 В 2 н/о н/о -0.8 -0.8 100 -5 -5 1003.8 976.6 -0.9
03 15.09 ЮВ 4 н/о н/о +2.2 -2.3 72 -2 -2 1004.7 977.8
06 15.09 В 3 н/о н/о +3.9 -4.1 56 +1 +1 1004.7 978.0
09 15.09 В 3 н/о н/о +4.8 -5.4 48 +2 +2 1005.4 978.7
12 15.09 СВ 3 н/о н/о +1.1 -5.3 62 -3 -3 1006.5 979.4 +4.9
15 15.09 СВ 5 н/о н/о +0.7 -5.0 66 -5 -5 1006.2 979.1
18 15.09 СВ 6 н/о н/о +1.3 -4.4 66 -5 -5 1005.5 978.5
21 15.09 С 7-11
{13}
н/о н/о -0.2 -0.3 99 -8 -8 1004.1 977.0
00 16.09 СВ 8-12
{16}
50 км {ливн. осадки} 10/5 300 м
[Cb cap Ac und]
+0.6 -1.7 85 -7 -7 1004.2 977.2 -0.4 2 2
03 16.09 В 5
{12}
50 км в посл. час ливневой снег 10/8 750 м
[Cb cap Ac und]
+0.8 -1.8 83 -5 -5 1006.7 979.6
06 16.09 В 4 50 км {ливн. осадки} 10/8 800 м
[Cb cap Ac und]
+0.5 -3.5 75 -5 -5 1009.1 981.9
09 16.09 В 3 50 км 10/5 1000 м
[Cb cap Ac trans Ci sp]
+1.3 -4.6 65 -3 -3 1010.4 983.3
12 16.09 В 1 н/о н/о +0.4 -4.4 70 -1 -1 1012.1 984.8 +1.3
15 16.09 СВ 3 н/о н/о -1.0 -4.6 77 -6 -6 1012.8 985.4
18 16.09 ЮЗ 1 н/о н/о -2.2 -4.2 86 -4 -4 1013.8 986.3
21 16.09 штиль 0 н/о н/о -1.7 -2.3 96 -3 -3 1014.7 987.1
00 17.09 СВ 2 50 км 10/5 600 м
[Sc Ac und]
-1.5 -2.6 92 -5 -5 1016.0 988.5 -2.4
03 17.09 В 2 50 км 10/6 500 м
[Sc Ac und]
+0.1 -2.3 84 -3 -3 1016.9 989.5
06 17.09 В 2 50 км 10/8 870 м
[Sc Ac und]
+1.3 -2.5 76 -2 -2 1017.7 990.4
09 17.09 ЮЗ 2 50 км 10/8 1110 м
[Sc Ac und]
+1.7 -4.5 63 -1 -1 1019.1 991.7
12 17.09 З 1 н/о н/о -0.8 -5.8 69 -3 -3 1020.5 992.9 +2.0

 

Местоположение метеостанции Оленек (Якутия, Россия): широта 68.50 долгота 112.40 высота над уровнем моря 220 м.

В архиве по умолчанию представлена погода в Оленеке за последнюю неделю. Архивные данные за месяц целиком и за предыдущие месяцы, начиная с января 2011 года, Вы можете получить, выбрав интересующий диапазон дат из раскрывающегося списка и нажав кнопку "Ввод!".


*Определитесь, кто Вы:
робот инопланетянин человек

Внимание! Время в таблицах - всемирное. Для получения местного времени необходимо прибавить поправку, которая равна 9 ч.

Смотрите также архив погоды в соседних городах и на ближайших метеорологических станциях:

Погода в Джалинде (Якутия, Россия) (191 км)
Погода в Полярном (Якутия, Россия) (197 км)
Погода в Ярольине (Якутия, Россия) (224 км)
Погода в Сухане (Якутия, Россия) (240 км)
Погода в Шелагонцах (Якутия, Россия) (262 км)
Погода в Айхале (Якутия, Россия) (289 км)
Погода в Эйке (Якутия, Россия) (349 км)
Погода в Саскылахе (Якутия, Россия) (391 км)
Погода в Хабардино (Якутия, Россия) (434 км)
Погода в Джарджане (Якутия, Россия) (470 км)

Пояснения к столбцам:

Ветер - указаны скорость ветра в м/с - средняя за 10 мин, порывы в срок и между сроками (в фигурных скобках) и направление, откуда дует ветер: С - северный, СВ - северо-восточный, В - восточный, ЮВ - юго-восточный, Ю - южный, ЮЗ - юго-западный, З - западный, СЗ - северо-западный.
Видимость - горизонтальная дальность видимости в метрах или километрах. При видимости от 1 до 10 км при отсутствии осадков обычно наблюдается дымка, при ухудшении видимости до 1 км и менее - туман. В сухую погоду видимость может ухудшаться дымом, пылью или мглою.
Явления - указаны атмосферные явления, наблюдавшиеся в срок или в последний час перед сроком; фигурными скобками обозначены явления, наблюдавшиеся между сроками (за 1-3 часа до срока); квадратными скобками обозначены град или гололедные отложения с указанием их диаметра в мм.
Облачность - указаны через наклонную черту общая и нижняя облачность в баллах и высота нижней границы облаков в метрах; квадратными скобками обозначены формы облаков: Ci - перистые, Cs - перисто-слоистые, Cc - перисто-кучевые, Ac - высококучевые, As - высокослоистые, Sc - слоисто-кучевые, Ns - слоисто-дождевые, Cu - кучевые, Cb - кучево-дождевые. Подробнее классификацию облаков см. в Атласе облаков (PDF).
T - Температура воздуха - температура, измеренная на высоте 2 м над землей.
Td - Температура точки росы - температура, при понижении до которой содержащийся в воздухе водяной пар достигнет насыщения.
f - Относительная влажность воздуха - влажноcть воздуха, измеренная на высоте 2 м над землей.
Te - Эффективная температура - температура, которую ощущает одетый по сезону человек в тени. Характеристика душности погоды. При расчете учитывается влияние влажности воздуха и скорости ветра на теплоощущения человека.
Tes - Эффективная температура на солнце - температура, которую ощущает человек, с поправкой на солнечный нагрев. Характеристика знойности погоды. Зависит от высоты солнца над горизонтом, облачности и скорости ветра. Ночью, в пасмурную погоду, а также при ветре 12 м/с и более поправка равна нулю.
P - Атмосферное давление - приведенное к уровню моря атмосферное давление.
Po - Атмосферное давление - измеренное на уровне метеостанции атмосферное давление.
Tmin - Минимальная температура - минимум температуры воздуха на высоте 2 м над землей.
Tmax - Максимальная температура - максимум температуры воздуха на высоте 2 м над землей.
R - Количество осадков - Количество выпавших осадков за период времени, мм. При наведении курсора мыши на число - период времени, за который выпало указанное количество осадков.
R24 - Количество осадков - Количество выпавших осадков за 24 часа, мм.
S - Снежный покров - Высота снежного покрова, см. При наведении курсора мыши на число - состояние снежного покрова и степень покрытия местности в баллах.